owner,sensor,date,latitude,longitude,vertical_datum,wind_speed,wind_to_direction,wind_speed_of_gust,qcFlag 
FIT,ioos:station:wmo:SIPF1:1,2014-01-06T21:30:00Z,27.8620,-80.4450,1.0,6.3,292.0,99.0,'11111222,11111222,11144222' 
FIT,ioos:station:wmo:SIPF1:1,2014-01-06T21:45:00Z,27.8620,-80.4450,1.0,6.6,310.0,99.0,'11111222,11111222,11144222' 
FIT,ioos:station:wmo:SIPF1:1,2014-01-06T22:00:00Z,27.8620,-80.4450,1.0,7.6,322.0,99.0,'11111222,11111222,11144222' 
FIT,ioos:station:wmo:SIPF1:1,2014-01-06T22:15:00Z,27.8620,-80.4450,1.0,9.2,319.0,99.0,'11111222,11111222,11144222' 
FIT,ioos:station:wmo:SIPF1:1,2014-01-06T22:30:00Z,27.8620,-80.4450,1.0,8.9,318.0,99.0,'11111222,11111222,11144222' 
FIT,ioos:station:wmo:SIPF1:1,2014-01-06T22:45:00Z,27.8620,-80.4450,1.0,8.4,312.0,99.0,'11111222,11111222,11144222' 
FIT,ioos:station:wmo:SIPF1:1,2014-01-06T23:00:00Z,27.8620,-80.4450,1.0,7.1,314.0,99.0,'11111222,11111222,11144222' 
FIT,ioos:station:wmo:SIPF1:1,2014-01-06T23:15:00Z,27.8620,-80.4450,1.0,7.5,312.0,99.0,'11111222,11111222,11144222' 
FIT,ioos:station:wmo:SIPF1:1,2014-01-06T23:30:00Z,27.8620,-80.4450,1.0,7.8,323.0,99.0,'11111222,11111222,11144222' 
FIT,ioos:station:wmo:SIPF1:1,2014-01-06T23:45:00Z,27.8620,-80.4450,1.0,9.1,320.0,99.0,'11111222,11111222,11144222' 
FIT,ioos:station:wmo:SIPF1:1,2014-01-07T00:00:00Z,27.8620,-80.4450,1.0,10.0,323.0,99.0,'11111222,11111222,11144222' 
FIT,ioos:station:wmo:SIPF1:1,2014-01-07T00:15:00Z,27.8620,-80.4450,1.0,10.8,321.0,99.0,'11111222,11111222,11144222' 
FIT,ioos:station:wmo:SIPF1:1,2014-01-07T00:30:00Z,27.8620,-80.4450,1.0,11.2,330.0,99.0,'11111222,11111222,11144222' 
FIT,ioos:station:wmo:SIPF1:1,2014-01-07T00:45:00Z,27.8620,-80.4450,1.0,10.6,324.0,99.0,'11111222,11111222,11144222' 
FIT,ioos:station:wmo:SIPF1:1,2014-01-07T01:00:00Z,27.8620,-80.4450,1.0,10.8,330.0,99.0,'11111222,11111222,11144222' 
FIT,ioos:station:wmo:SIPF1:1,2014-01-07T01:15:00Z,27.8620,-80.4450,1.0,12.0,334.0,99.0,'11111222,11111222,11144222' 
FIT,ioos:station:wmo:SIPF1:1,2014-01-07T01:30:00Z,27.8620,-80.4450,1.0,11.9,332.0,99.0,'11111222,11111222,11144222' 
FIT,ioos:station:wmo:SIPF1:1,2014-01-07T01:45:00Z,27.8620,-80.4450,1.0,11.1,327.0,99.0,'11111222,11111222,11144222' 
FIT,ioos:station:wmo:SIPF1:1,2014-01-07T02:00:00Z,27.8620,-80.4450,1.0,10.9,329.0,99.0,'11111222,11111222,11144222' 
FIT,ioos:station:wmo:SIPF1:1,2014-01-07T02:15:00Z,27.8620,-80.4450,1.0,10.7,324.0,99.0,'11111222,11111222,11144222' 
FIT,ioos:station:wmo:SIPF1:1,2014-01-07T02:30:00Z,27.8620,-80.4450,1.0,10.6,328.0,99.0,'11111222,11111222,11144222' 
FIT,ioos:station:wmo:SIPF1:1,2014-01-07T02:45:00Z,27.8620,-80.4450,1.0,11.6,330.0,99.0,'11111222,11111222,11144222' 
FIT,ioos:station:wmo:SIPF1:1,2014-01-07T03:00:00Z,27.8620,-80.4450,1.0,11.6,330.0,99.0,'11111222,11111222,11144222' 
FIT,ioos:station:wmo:SIPF1:1,2014-01-07T03:15:00Z,27.8620,-80.4450,1.0,10.8,325.0,99.0,'11111222,11111222,11144222' 
FIT,ioos:station:wmo:SIPF1:1,2014-01-07T03:30:00Z,27.8620,-80.4450,1.0,12.0,330.0,99.0,'11111222,11111222,11144222' 
FIT,ioos:station:wmo:SIPF1:1,2014-01-07T03:45:00Z,27.8620,-80.4450,1.0,11.7,327.0,99.0,'11111222,11111222,11144222' 
FIT,ioos:station:wmo:SIPF1:1,2014-01-07T04:15:00Z,27.8620,-80.4450,1.0,10.7,330.0,99.0,'11111222,11111222,11144222' 
FIT,ioos:station:wmo:SIPF1:1,2014-01-07T04:30:00Z,27.8620,-80.4450,1.0,10.3,330.0,99.0,'11111222,11111222,11144222' 
FIT,ioos:station:wmo:SIPF1:1,2014-01-07T04:45:00Z,27.8620,-80.4450,1.0,10.2,331.0,99.0,'11111222,11111222,11144222' 
FIT,ioos:station:wmo:SIPF1:1,2014-01-07T05:00:00Z,27.8620,-80.4450,1.0,11.6,334.0,99.0,'11111222,11111222,11144222' 
FIT,ioos:station:wmo:SIPF1:1,2014-01-07T05:15:00Z,27.8620,-80.4450,1.0,10.1,330.0,99.0,'11111222,11111222,11144222' 
FIT,ioos:station:wmo:SIPF1:1,2014-01-07T05:30:00Z,27.8620,-80.4450,1.0,9.4,328.0,99.0,'11111222,11111222,11144222' 
FIT,ioos:station:wmo:SIPF1:1,2014-01-07T05:45:00Z,27.8620,-80.4450,1.0,10.7,328.0,99.0,'11111222,11111222,11144222' 
FIT,ioos:station:wmo:SIPF1:1,2014-01-07T06:00:00Z,27.8620,-80.4450,1.0,10.7,327.0,99.0,'11111222,11111222,11144222' 
FIT,ioos:station:wmo:SIPF1:1,2014-01-07T06:15:00Z,27.8620,-80.4450,1.0,9.1,325.0,99.0,'11111222,11111222,11144222' 
FIT,ioos:station:wmo:SIPF1:1,2014-01-07T06:30:00Z,27.8620,-80.4450,1.0,9.0,324.0,99.0,'11111222,11111222,11144222' 
FIT,ioos:station:wmo:SIPF1:1,2014-01-07T06:45:00Z,27.8620,-80.4450,1.0,9.5,324.0,99.0,'11111222,11111222,11144222' 
FIT,ioos:station:wmo:SIPF1:1,2014-01-07T07:00:00Z,27.8620,-80.4450,1.0,8.4,322.0,99.0,'11111222,11111222,11144222' 
FIT,ioos:station:wmo:SIPF1:1,2014-01-07T07:15:00Z,27.8620,-80.4450,1.0,10.3,332.0,99.0,'11111222,11111222,11144222' 
FIT,ioos:station:wmo:SIPF1:1,2014-01-07T07:30:00Z,27.8620,-80.4450,1.0,10.1,330.0,99.0,'11111222,11111222,11144222' 
FIT,ioos:station:wmo:SIPF1:1,2014-01-07T07:45:00Z,27.8620,-80.4450,1.0,9.3,341.0,99.0,'11111222,11111222,11144222' 
FIT,ioos:station:wmo:SIPF1:1,2014-01-07T08:00:00Z,27.8620,-80.4450,1.0,11.5,347.0,99.0,'11111222,11111222,11144222' 
FIT,ioos:station:wmo:SIPF1:1,2014-01-07T08:15:00Z,27.8620,-80.4450,1.0,12.5,347.0,99.0,'11111222,11111222,11144222' 
FIT,ioos:station:wmo:SIPF1:1,2014-01-07T08:30:00Z,27.8620,-80.4450,1.0,12.7,351.0,99.0,'11111222,11111222,11144222' 
FIT,ioos:station:wmo:SIPF1:1,2014-01-07T08:45:00Z,27.8620,-80.4450,1.0,13.3,350.0,99.0,'11111222,11111222,11144222' 
FIT,ioos:station:wmo:SIPF1:1,2014-01-07T09:00:00Z,27.8620,-80.4450,1.0,12.8,347.0,99.0,'11111222,11111222,11144222' 
FIT,ioos:station:wmo:SIPF1:1,2014-01-07T09:15:00Z,27.8620,-80.4450,1.0,11.4,332.0,99.0,'11111222,11111222,11144222' 
FIT,ioos:station:wmo:SIPF1:1,2014-01-07T09:30:00Z,27.8620,-80.4450,1.0,12.0,345.0,99.0,'11111222,11111222,11144222' 
FIT,ioos:station:wmo:SIPF1:1,2014-01-07T09:45:00Z,27.8620,-80.4450,1.0,11.1,338.0,99.0,'11111222,11111222,11144222' 
FIT,ioos:station:wmo:SIPF1:1,2014-01-07T10:00:00Z,27.8620,-80.4450,1.0,12.0,346.0,99.0,'11111222,11111222,11144222' 
FIT,ioos:station:wmo:SIPF1:1,2014-01-07T10:15:00Z,27.8620,-80.4450,1.0,11.9,334.0,99.0,'11111222,11111222,11144222' 
FIT,ioos:station:wmo:SIPF1:1,2014-01-07T10:30:00Z,27.8620,-80.4450,1.0,11.2,329.0,99.0,'11111222,11111222,11144222' 
FIT,ioos:station:wmo:SIPF1:1,2014-01-07T10:45:00Z,27.8620,-80.4450,1.0,10.0,327.0,99.0,'11111222,11111222,11144222' 
FIT,ioos:station:wmo:SIPF1:1,2014-01-07T11:00:00Z,27.8620,-80.4450,1.0,10.0,333.0,99.0,'11111222,11111222,11144222' 
FIT,ioos:station:wmo:SIPF1:1,2014-01-07T11:15:00Z,27.8620,-80.4450,1.0,11.6,333.0,99.0,'11111222,11111222,11144222' 
FIT,ioos:station:wmo:SIPF1:1,2014-01-07T11:30:00Z,27.8620,-80.4450,1.0,10.9,344.0,99.0,'11111222,11111222,11144222' 
FIT,ioos:station:wmo:SIPF1:1,2014-01-07T11:45:00Z,27.8620,-80.4450,1.0,9.6,329.0,99.0,'11111222,11111222,11144222' 
FIT,ioos:station:wmo:SIPF1:1,2014-01-07T12:00:00Z,27.8620,-80.4450,1.0,10.7,341.0,99.0,'11111222,11111222,11144222' 
FIT,ioos:station:wmo:SIPF1:1,2014-01-07T12:15:00Z,27.8620,-80.4450,1.0,12.3,339.0,99.0,'11111222,11111222,11144222' 
FIT,ioos:station:wmo:SIPF1:1,2014-01-07T12:30:00Z,27.8620,-80.4450,1.0,11.3,338.0,99.0,'11111222,11111222,11144222' 
FIT,ioos:station:wmo:SIPF1:1,2014-01-07T12:45:00Z,27.8620,-80.4450,1.0,12.9,346.0,99.0,'11111222,11111222,11144222' 
FIT,ioos:station:wmo:SIPF1:1,2014-01-07T13:00:00Z,27.8620,-80.4450,1.0,13.3,347.0,99.0,'11111222,11111222,11144222' 
FIT,ioos:station:wmo:SIPF1:1,2014-01-07T13:15:00Z,27.8620,-80.4450,1.0,13.2,349.0,99.0,'11111222,11111222,11144222' 
FIT,ioos:station:wmo:SIPF1:1,2014-01-07T13:30:00Z,27.8620,-80.4450,1.0,14.6,347.0,99.0,'11111222,11111222,11144222' 
FIT,ioos:station:wmo:SIPF1:1,2014-01-07T13:45:00Z,27.8620,-80.4450,1.0,13.8,349.0,99.0,'11111222,11111222,11144222' 
FIT,ioos:station:wmo:SIPF1:1,2014-01-07T14:00:00Z,27.8620,-80.4450,1.0,13.8,345.0,99.0,'11111222,11111222,11144222' 
FIT,ioos:station:wmo:SIPF1:1,2014-01-07T14:15:00Z,27.8620,-80.4450,1.0,12.0,336.0,99.0,'11111222,11111222,11144222' 
FIT,ioos:station:wmo:SIPF1:1,2014-01-07T14:30:00Z,27.8620,-80.4450,1.0,11.4,329.0,99.0,'11111222,11111222,11144222' 
FIT,ioos:station:wmo:SIPF1:1,2014-01-07T14:45:00Z,27.8620,-80.4450,1.0,11.2,335.0,99.0,'11111222,11111222,11144222' 
FIT,ioos:station:wmo:SIPF1:1,2014-01-07T15:00:00Z,27.8620,-80.4450,1.0,13.4,345.0,99.0,'11111222,11111222,11144222' 
FIT,ioos:station:wmo:SIPF1:1,2014-01-07T15:15:00Z,27.8620,-80.4450,1.0,13.4,341.0,99.0,'11111222,11111222,11144222' 
FIT,ioos:station:wmo:SIPF1:1,2014-01-07T15:30:00Z,27.8620,-80.4450,1.0,12.9,344.0,99.0,'11111222,11111222,11144222' 
FIT,ioos:station:wmo:SIPF1:1,2014-01-07T15:45:00Z,27.8620,-80.4450,1.0,13.2,350.0,99.0,'11111222,11111222,11144222' 
FIT,ioos:station:wmo:SIPF1:1,2014-01-07T16:00:00Z,27.8620,-80.4450,1.0,12.4,346.0,99.0,'11111222,11111222,11144222' 
FIT,ioos:station:wmo:SIPF1:1,2014-01-07T16:15:00Z,27.8620,-80.4450,1.0,12.7,344.0,99.0,'11111222,11111222,11144222' 
FIT,ioos:station:wmo:SIPF1:1,2014-01-07T16:30:00Z,27.8620,-80.4450,1.0,13.0,348.0,99.0,'11111222,11111222,11144222' 
FIT,ioos:station:wmo:SIPF1:1,2014-01-07T16:45:00Z,27.8620,-80.4450,1.0,12.6,349.0,99.0,'11111222,11111222,11144222' 
FIT,ioos:station:wmo:SIPF1:1,2014-01-07T17:00:00Z,27.8620,-80.4450,1.0,12.8,356.0,99.0,'11111222,11111222,11144222' 
FIT,ioos:station:wmo:SIPF1:1,2014-01-07T17:15:00Z,27.8620,-80.4450,1.0,12.9,355.0,99.0,'11111222,11111222,11144222' 
FIT,ioos:station:wmo:SIPF1:1,2014-01-07T17:30:00Z,27.8620,-80.4450,1.0,12.7,354.0,99.0,'11111222,11111222,11144222' 
FIT,ioos:station:wmo:SIPF1:1,2014-01-07T17:45:00Z,27.8620,-80.4450,1.0,12.0,356.0,99.0,'11111222,11111222,11144222' 
FIT,ioos:station:wmo:SIPF1:1,2014-01-07T18:00:00Z,27.8620,-80.4450,1.0,12.0,353.0,99.0,'11111222,11111222,11144222' 
FIT,ioos:station:wmo:SIPF1:1,2014-01-07T18:15:00Z,27.8620,-80.4450,1.0,12.3,356.0,99.0,'11111222,11111222,11144222' 
FIT,ioos:station:wmo:SIPF1:1,2014-01-07T18:30:00Z,27.8620,-80.4450,1.0,12.7,347.0,99.0,'11111222,11111222,11144222' 
FIT,ioos:station:wmo:SIPF1:1,2014-01-07T18:45:00Z,27.8620,-80.4450,1.0,12.6,352.0,99.0,'11111222,11111222,11144222' 
FIT,ioos:station:wmo:SIPF1:1,2014-01-07T19:00:00Z,27.8620,-80.4450,1.0,12.8,352.0,99.0,'11111222,11111222,11144222' 
FIT,ioos:station:wmo:SIPF1:1,2014-01-07T19:15:00Z,27.8620,-80.4450,1.0,12.7,346.0,99.0,'11111222,11111222,11144222' 
FIT,ioos:station:wmo:SIPF1:1,2014-01-07T19:30:00Z,27.8620,-80.4450,1.0,12.4,352.0,99.0,'11111222,11111222,11144222' 
FIT,ioos:station:wmo:SIPF1:1,2014-01-07T19:45:00Z,27.8620,-80.4450,1.0,12.2,351.0,99.0,'11111222,11111222,11144222' 
FIT,ioos:station:wmo:SIPF1:1,2014-01-07T20:00:00Z,27.8620,-80.4450,1.0,12.3,350.0,99.0,'11111222,11111222,11144222' 
FIT,ioos:station:wmo:SIPF1:1,2014-01-07T20:15:00Z,27.8620,-80.4450,1.0,12.6,350.0,99.0,'11111222,11111222,11144222' 
FIT,ioos:station:wmo:SIPF1:1,2014-01-07T20:30:00Z,27.8620,-80.4450,1.0,12.7,347.0,99.0,'11111222,11111222,11144222' 
FIT,ioos:station:wmo:SIPF1:1,2014-01-07T20:45:00Z,27.8620,-80.4450,1.0,12.9,349.0,99.0,'11111222,11111222,11144222' 
FIT,ioos:station:wmo:SIPF1:1,2014-01-07T21:00:00Z,27.8620,-80.4450,1.0,13.4,351.0,99.0,'11111222,11111222,11144222' 
FIT,ioos:station:wmo:SIPF1:1,2014-01-07T21:15:00Z,27.8620,-80.4450,1.0,12.9,346.0,99.0,'11111222,11111222,11144222' 
FIT,ioos:station:wmo:SIPF1:1,2014-01-07T21:30:00Z,27.8620,-80.4450,1.0,13.1,349.0,99.0,'11111222,11111222,11144222' 
FIT,ioos:station:wmo:SIPF1:1,2014-01-07T21:45:00Z,27.8620,-80.4450,1.0,13.2,344.0,99.0,'11111222,11111222,11144222' 
FIT,ioos:station:wmo:SIPF1:1,2014-01-07T22:00:00Z,27.8620,-80.4450,1.0,12.9,349.0,99.0,'11111222,11111222,11144222' 
FIT,ioos:station:wmo:SIPF1:1,2014-01-07T22:15:00Z,27.8620,-80.4450,1.0,13.1,350.0,99.0,'11111222,11111222,11144222' 
FIT,ioos:station:wmo:SIPF1:1,2014-01-07T22:30:00Z,27.8620,-80.4450,1.0,12.8,343.0,99.0,'11111222,11111222,11144222' 
FIT,ioos:station:wmo:SIPF1:1,2014-01-07T22:45:00Z,27.8620,-80.4450,1.0,12.9,347.0,99.0,'11111222,11111222,11144222' 
FIT,ioos:station:wmo:SIPF1:1,2014-01-07T23:00:00Z,27.8620,-80.4450,1.0,13.3,351.0,99.0,'11111222,11111222,11144222' 
FIT,ioos:station:wmo:SIPF1:1,2014-01-07T23:15:00Z,27.8620,-80.4450,1.0,13.2,347.0,99.0,'11111222,11111222,11144222' 
FIT,ioos:station:wmo:SIPF1:1,2014-01-07T23:30:00Z,27.8620,-80.4450,1.0,13.1,346.0,99.0,'11111222,11111222,11144222' 
FIT,ioos:station:wmo:SIPF1:1,2014-01-07T23:45:00Z,27.8620,-80.4450,1.0,12.5,346.0,99.0,'11111222,11111222,11144222' 
FIT,ioos:station:wmo:SIPF1:1,2014-01-08T00:00:00Z,27.8620,-80.4450,1.0,12.9,348.0,99.0,'11111222,11111222,11144222' 
FIT,ioos:station:wmo:SIPF1:1,2014-01-08T00:15:00Z,27.8620,-80.4450,1.0,13.0,353.0,99.0,'11111222,11111222,11144222' 
FIT,ioos:station:wmo:SIPF1:1,2014-01-08T00:30:00Z,27.8620,-80.4450,1.0,12.6,347.0,99.0,'11111222,11111222,11144222' 
FIT,ioos:station:wmo:SIPF1:1,2014-01-08T00:45:00Z,27.8620,-80.4450,1.0,13.0,347.0,99.0,'11111222,11111222,11144222' 
FIT,ioos:station:wmo:SIPF1:1,2014-01-08T01:00:00Z,27.8620,-80.4450,1.0,12.9,345.0,99.0,'11111222,11111222,11144222' 
FIT,ioos:station:wmo:SIPF1:1,2014-01-08T01:15:00Z,27.8620,-80.4450,1.0,13.0,351.0,99.0,'11111222,11111222,11144222' 
FIT,ioos:station:wmo:SIPF1:1,2014-01-08T01:30:00Z,27.8620,-80.4450,1.0,13.1,348.0,99.0,'11111222,11111222,11144222' 
FIT,ioos:station:wmo:SIPF1:1,2014-01-08T01:45:00Z,27.8620,-80.4450,1.0,12.4,350.0,99.0,'11111222,11111222,11144222' 
FIT,ioos:station:wmo:SIPF1:1,2014-01-08T02:00:00Z,27.8620,-80.4450,1.0,12.5,346.0,99.0,'11111222,11111222,11144222' 
FIT,ioos:station:wmo:SIPF1:1,2014-01-08T02:15:00Z,27.8620,-80.4450,1.0,12.3,347.0,99.0,'11111222,11111222,11144222' 
FIT,ioos:station:wmo:SIPF1:1,2014-01-08T02:30:00Z,27.8620,-80.4450,1.0,12.6,347.0,99.0,'11111222,11111222,11144222' 
FIT,ioos:station:wmo:SIPF1:1,2014-01-08T02:45:00Z,27.8620,-80.4450,1.0,12.5,348.0,99.0,'11111222,11111222,11144222' 
FIT,ioos:station:wmo:SIPF1:1,2014-01-08T03:00:00Z,27.8620,-80.4450,1.0,12.7,346.0,99.0,'11111222,11111222,11144222' 
FIT,ioos:station:wmo:SIPF1:1,2014-01-08T03:15:00Z,27.8620,-80.4450,1.0,11.3,334.0,99.0,'11111222,11111222,11144222' 
FIT,ioos:station:wmo:SIPF1:1,2014-01-08T03:30:00Z,27.8620,-80.4450,1.0,9.4,334.0,99.0,'11111222,11111222,11144222' 
FIT,ioos:station:wmo:SIPF1:1,2014-01-08T03:45:00Z,27.8620,-80.4450,1.0,12.0,349.0,99.0,'11111222,11111222,11144222' 
FIT,ioos:station:wmo:SIPF1:1,2014-01-08T04:00:00Z,27.8620,-80.4450,1.0,11.4,345.0,99.0,'11111222,11111222,11144222' 
FIT,ioos:station:wmo:SIPF1:1,2014-01-08T04:15:00Z,27.8620,-80.4450,1.0,11.9,354.0,99.0,'11111222,11111222,11144222' 
FIT,ioos:station:wmo:SIPF1:1,2014-01-08T04:30:00Z,27.8620,-80.4450,1.0,12.3,349.0,99.0,'11111222,11111222,11144222' 
FIT,ioos:station:wmo:SIPF1:1,2014-01-08T04:45:00Z,27.8620,-80.4450,1.0,12.3,351.0,99.0,'11111222,11111222,11144222' 
FIT,ioos:station:wmo:SIPF1:1,2014-01-08T05:00:00Z,27.8620,-80.4450,1.0,11.9,351.0,99.0,'11111222,11111222,11144222' 
FIT,ioos:station:wmo:SIPF1:1,2014-01-08T05:15:00Z,27.8620,-80.4450,1.0,11.7,349.0,99.0,'11111222,11111222,11144222' 
FIT,ioos:station:wmo:SIPF1:1,2014-01-08T05:30:00Z,27.8620,-80.4450,1.0,10.5,341.0,99.0,'11111222,11111222,11144222' 
FIT,ioos:station:wmo:SIPF1:1,2014-01-08T05:45:00Z,27.8620,-80.4450,1.0,5.0,318.0,99.0,'11111222,11111222,11144222' 
FIT,ioos:station:wmo:SIPF1:1,2014-01-08T06:00:00Z,27.8620,-80.4450,1.0,4.8,304.0,99.0,'11111222,11111222,11144222' 
FIT,ioos:station:wmo:SIPF1:1,2014-01-08T06:15:00Z,27.8620,-80.4450,1.0,6.1,314.0,99.0,'11111222,11111222,11144222' 
FIT,ioos:station:wmo:SIPF1:1,2014-01-08T06:45:00Z,27.8620,-80.4450,1.0,6.1,315.0,99.0,'11111222,11111222,11144222' 
FIT,ioos:station:wmo:SIPF1:1,2014-01-08T07:00:00Z,27.8620,-80.4450,1.0,5.9,317.0,99.0,'11111222,11111222,11144222' 
FIT,ioos:station:wmo:SIPF1:1,2014-01-08T07:15:00Z,27.8620,-80.4450,1.0,5.5,315.0,99.0,'11111222,11111222,11144222' 
FIT,ioos:station:wmo:SIPF1:1,2014-01-08T07:30:00Z,27.8620,-80.4450,1.0,6.2,318.0,99.0,'11111222,11111222,11144222' 
FIT,ioos:station:wmo:SIPF1:1,2014-01-08T07:45:00Z,27.8620,-80.4450,1.0,5.7,313.0,99.0,'11111222,11111222,11144222' 
FIT,ioos:station:wmo:SIPF1:1,2014-01-08T08:00:00Z,27.8620,-80.4450,1.0,5.1,311.0,99.0,'11111222,11111222,11144222' 
FIT,ioos:station:wmo:SIPF1:1,2014-01-08T08:15:00Z,27.8620,-80.4450,1.0,4.2,339.0,99.0,'11111222,11111222,11144222' 
FIT,ioos:station:wmo:SIPF1:1,2014-01-08T08:30:00Z,27.8620,-80.4450,1.0,7.8,58.0,99.0,'11111222,11111222,11144222' 
FIT,ioos:station:wmo:SIPF1:1,2014-01-08T08:45:00Z,27.8620,-80.4450,1.0,7.7,56.0,99.0,'11111222,11111222,11144222' 
FIT,ioos:station:wmo:SIPF1:1,2014-01-08T09:00:00Z,27.8620,-80.4450,1.0,7.3,54.0,99.0,'11111222,11111222,11144222' 
FIT,ioos:station:wmo:SIPF1:1,2014-01-08T09:15:00Z,27.8620,-80.4450,1.0,6.8,57.0,99.0,'11111222,11111222,11144222' 
FIT,ioos:station:wmo:SIPF1:1,2014-01-08T09:30:00Z,27.8620,-80.4450,1.0,7.6,55.0,99.0,'11111222,11111222,11144222' 
FIT,ioos:station:wmo:SIPF1:1,2014-01-08T09:45:00Z,27.8620,-80.4450,1.0,8.6,52.0,99.0,'11111222,11111222,11144222' 
FIT,ioos:station:wmo:SIPF1:1,2014-01-08T10:00:00Z,27.8620,-80.4450,1.0,8.3,56.0,99.0,'11111222,11111222,11144222' 
FIT,ioos:station:wmo:SIPF1:1,2014-01-08T10:15:00Z,27.8620,-80.4450,1.0,8.1,58.0,99.0,'11111222,11111222,11144222' 
FIT,ioos:station:wmo:SIPF1:1,2014-01-08T10:30:00Z,27.8620,-80.4450,1.0,8.9,56.0,99.0,'11111222,11111222,11144222' 
FIT,ioos:station:wmo:SIPF1:1,2014-01-08T10:45:00Z,27.8620,-80.4450,1.0,8.9,56.0,99.0,'11111222,11111222,11144222' 
FIT,ioos:station:wmo:SIPF1:1,2014-01-08T11:00:00Z,27.8620,-80.4450,1.0,8.3,59.0,99.0,'11111222,11111222,11144222' 
FIT,ioos:station:wmo:SIPF1:1,2014-01-08T11:15:00Z,27.8620,-80.4450,1.0,9.2,52.0,99.0,'11111222,11111222,11144222' 
FIT,ioos:station:wmo:SIPF1:1,2014-01-08T11:30:00Z,27.8620,-80.4450,1.0,8.9,48.0,99.0,'11111222,11111222,11144222' 
FIT,ioos:station:wmo:SIPF1:1,2014-01-08T11:45:00Z,27.8620,-80.4450,1.0,8.1,53.0,99.0,'11111222,11111222,11144222' 
FIT,ioos:station:wmo:SIPF1:1,2014-01-08T12:00:00Z,27.8620,-80.4450,1.0,8.2,51.0,99.0,'11111222,11111222,11144222' 
FIT,ioos:station:wmo:SIPF1:1,2014-01-08T12:15:00Z,27.8620,-80.4450,1.0,8.7,52.0,99.0,'11111222,11111222,11144222' 
FIT,ioos:station:wmo:SIPF1:1,2014-01-08T12:30:00Z,27.8620,-80.4450,1.0,8.1,51.0,99.0,'11111222,11111222,11144222' 
FIT,ioos:station:wmo:SIPF1:1,2014-01-08T12:45:00Z,27.8620,-80.4450,1.0,8.2,48.0,99.0,'11111222,11111222,11144222' 
FIT,ioos:station:wmo:SIPF1:1,2014-01-08T13:00:00Z,27.8620,-80.4450,1.0,8.3,50.0,99.0,'11111222,11111222,11144222' 
FIT,ioos:station:wmo:SIPF1:1,2014-01-08T13:15:00Z,27.8620,-80.4450,1.0,9.0,53.0,99.0,'11111222,11111222,11144222' 
FIT,ioos:station:wmo:SIPF1:1,2014-01-08T13:30:00Z,27.8620,-80.4450,1.0,8.0,56.0,99.0,'11111222,11111222,11144222' 
FIT,ioos:station:wmo:SIPF1:1,2014-01-08T13:45:00Z,27.8620,-80.4450,1.0,7.5,59.0,99.0,'11111222,11111222,11144222' 
FIT,ioos:station:wmo:SIPF1:1,2014-01-08T14:00:00Z,27.8620,-80.4450,1.0,7.8,59.0,99.0,'11111222,11111222,11144222' 
FIT,ioos:station:wmo:SIPF1:1,2014-01-08T14:15:00Z,27.8620,-80.4450,1.0,8.1,55.0,99.0,'11111222,11111222,11144222' 
FIT,ioos:station:wmo:SIPF1:1,2014-01-08T14:30:00Z,27.8620,-80.4450,1.0,8.3,57.0,99.0,'11111222,11111222,11144222' 
FIT,ioos:station:wmo:SIPF1:1,2014-01-08T14:45:00Z,27.8620,-80.4450,1.0,8.3,56.0,99.0,'11111222,11111222,11144222' 
FIT,ioos:station:wmo:SIPF1:1,2014-01-08T15:00:00Z,27.8620,-80.4450,1.0,8.8,63.0,99.0,'11111222,11111222,11144222' 
FIT,ioos:station:wmo:SIPF1:1,2014-01-08T15:15:00Z,27.8620,-80.4450,1.0,8.4,68.0,99.0,'11111222,11111222,11144222' 
FIT,ioos:station:wmo:SIPF1:1,2014-01-08T15:30:00Z,27.8620,-80.4450,1.0,8.7,67.0,99.0,'11111222,11111222,11144222' 
FIT,ioos:station:wmo:SIPF1:1,2014-01-08T15:45:00Z,27.8620,-80.4450,1.0,8.5,65.0,99.0,'11111222,11111222,11144222' 
FIT,ioos:station:wmo:SIPF1:1,2014-01-08T16:00:00Z,27.8620,-80.4450,1.0,8.6,65.0,99.0,'11111222,11111222,11144222' 
FIT,ioos:station:wmo:SIPF1:1,2014-01-08T16:15:00Z,27.8620,-80.4450,1.0,8.4,57.0,99.0,'11111222,11111222,11144222' 
FIT,ioos:station:wmo:SIPF1:1,2014-01-08T16:30:00Z,27.8620,-80.4450,1.0,8.6,65.0,99.0,'11111222,11111222,11144222' 
FIT,ioos:station:wmo:SIPF1:1,2014-01-08T16:45:00Z,27.8620,-80.4450,1.0,8.0,66.0,99.0,'11111222,11111222,11144222' 
FIT,ioos:station:wmo:SIPF1:1,2014-01-08T17:00:00Z,27.8620,-80.4450,1.0,8.0,68.0,99.0,'11111222,11111222,11144222' 
FIT,ioos:station:wmo:SIPF1:1,2014-01-08T17:15:00Z,27.8620,-80.4450,1.0,8.0,69.0,99.0,'11111222,11111222,11144222' 
FIT,ioos:station:wmo:SIPF1:1,2014-01-08T17:30:00Z,27.8620,-80.4450,1.0,7.6,69.0,99.0,'11111222,11111222,11144222' 
FIT,ioos:station:wmo:SIPF1:1,2014-01-08T17:45:00Z,27.8620,-80.4450,1.0,7.9,76.0,99.0,'11111222,11111222,11144222' 
FIT,ioos:station:wmo:SIPF1:1,2014-01-08T18:00:00Z,27.8620,-80.4450,1.0,7.8,77.0,99.0,'11111222,11111222,11144222' 
FIT,ioos:station:wmo:SIPF1:1,2014-01-08T18:15:00Z,27.8620,-80.4450,1.0,7.4,75.0,99.0,'11111222,11111222,11144222' 
FIT,ioos:station:wmo:SIPF1:1,2014-01-08T18:30:00Z,27.8620,-80.4450,1.0,7.4,82.0,99.0,'11111222,11111222,11144222' 
FIT,ioos:station:wmo:SIPF1:1,2014-01-08T18:45:00Z,27.8620,-80.4450,1.0,7.4,77.0,99.0,'11111222,11111222,11144222' 
FIT,ioos:station:wmo:SIPF1:1,2014-01-08T19:00:00Z,27.8620,-80.4450,1.0,7.5,75.0,99.0,'11111222,11111222,11144222' 
FIT,ioos:station:wmo:SIPF1:1,2014-01-08T19:15:00Z,27.8620,-80.4450,1.0,7.9,75.0,99.0,'11111222,11111222,11144222' 
FIT,ioos:station:wmo:SIPF1:1,2014-01-08T19:30:00Z,27.8620,-80.4450,1.0,7.6,70.0,99.0,'11111222,11111222,11144222' 
FIT,ioos:station:wmo:SIPF1:1,2014-01-08T19:45:00Z,27.8620,-80.4450,1.0,7.2,69.0,99.0,'11111222,11111222,11144222' 
FIT,ioos:station:wmo:SIPF1:1,2014-01-08T20:00:00Z,27.8620,-80.4450,1.0,7.1,73.0,99.0,'11111222,11111222,11144222' 
FIT,ioos:station:wmo:SIPF1:1,2014-01-08T20:15:00Z,27.8620,-80.4450,1.0,7.0,71.0,99.0,'11111222,11111222,11144222' 
FIT,ioos:station:wmo:SIPF1:1,2014-01-08T20:30:00Z,27.8620,-80.4450,1.0,7.1,69.0,99.0,'11111222,11111222,11144222' 
FIT,ioos:station:wmo:SIPF1:1,2014-01-08T20:45:00Z,27.8620,-80.4450,1.0,7.2,71.0,99.0,'11111222,11111222,11144222' 
FIT,ioos:station:wmo:SIPF1:1,2014-01-08T21:00:00Z,27.8620,-80.4450,1.0,7.3,67.0,99.0,'11111222,11111222,11144222' 
FIT,ioos:station:wmo:SIPF1:1,2014-01-08T21:15:00Z,27.8620,-80.4450,1.0,7.7,62.0,99.0,'11111222,11111222,11144222' 
FIT,ioos:station:wmo:SIPF1:1,2014-01-08T21:30:00Z,27.8620,-80.4450,1.0,7.2,64.0,99.0,'11111222,11111222,11144222' 
FIT,ioos:station:wmo:SIPF1:1,2014-01-08T21:45:00Z,27.8620,-80.4450,1.0,7.1,66.0,99.0,'11111222,11111222,11144222' 
FIT,ioos:station:wmo:SIPF1:1,2014-01-08T22:00:00Z,27.8620,-80.4450,1.0,7.6,65.0,99.0,'11111222,11111222,11144222' 
FIT,ioos:station:wmo:SIPF1:1,2014-01-08T22:15:00Z,27.8620,-80.4450,1.0,7.5,69.0,99.0,'11111222,11111222,11144222' 
FIT,ioos:station:wmo:SIPF1:1,2014-01-08T22:30:00Z,27.8620,-80.4450,1.0,7.5,66.0,99.0,'11111222,11111222,11144222' 
FIT,ioos:station:wmo:SIPF1:1,2014-01-08T22:45:00Z,27.8620,-80.4450,1.0,7.2,69.0,99.0,'11111222,11111222,11144222' 
FIT,ioos:station:wmo:SIPF1:1,2014-01-08T23:00:00Z,27.8620,-80.4450,1.0,7.3,72.0,99.0,'11111222,11111222,11144222' 
FIT,ioos:station:wmo:SIPF1:1,2014-01-08T23:15:00Z,27.8620,-80.4450,1.0,7.2,70.0,99.0,'11111222,11111222,11144222' 
FIT,ioos:station:wmo:SIPF1:1,2014-01-08T23:30:00Z,27.8620,-80.4450,1.0,7.4,71.0,99.0,'11111222,11111222,11144222' 
FIT,ioos:station:wmo:SIPF1:1,2014-01-08T23:45:00Z,27.8620,-80.4450,1.0,7.2,68.0,99.0,'11111222,11111222,11144222' 
FIT,ioos:station:wmo:SIPF1:1,2014-01-09T00:00:00Z,27.8620,-80.4450,1.0,6.9,71.0,99.0,'11111222,11111222,11144222' 
FIT,ioos:station:wmo:SIPF1:1,2014-01-09T00:15:00Z,27.8620,-80.4450,1.0,7.3,76.0,99.0,'11111222,11111222,11144222' 
FIT,ioos:station:wmo:SIPF1:1,2014-01-09T00:30:00Z,27.8620,-80.4450,1.0,7.5,74.0,99.0,'11111222,11111222,11144222' 
FIT,ioos:station:wmo:SIPF1:1,2014-01-09T00:45:00Z,27.8620,-80.4450,1.0,7.7,76.0,99.0,'11111222,11111222,11144222' 
FIT,ioos:station:wmo:SIPF1:1,2014-01-09T01:00:00Z,27.8620,-80.4450,1.0,7.7,74.0,99.0,'11111222,11111222,11144222' 